Other Public Products
Issued by NWS Charleston, SC

Current Version | Previous Version | Graphics & Text | Print | Product List | Glossary On
Versions: 1 2 3 4 5 6 7 8 9 10 11 12 13 14 15 16 17 18 19 20 21 22 23 24 25 26 27 28 29 30 31 32 33 34 35 36 37 38 39 40 41 42 43 44 45 46 47 48 49 50
000
FPUS82 KCHS 231043
OPUCHS

TEST...KCHS/KSAV Gateway Observations...TEST
National Weather Service Charleston SC
600 AM EDT SAT SEP 23 2017

NOTE: "fair" indicates few or no clouds below 12,000 feet with no
significant weather and/or obstructions to visibility.

SCZ050-WAZ558-NCZ071-TXZ119-213-PAZ071-DCZ001-FLZ074-172-MI076-
NYZ176-178-MAZ016-IL014-TNZ027-NJZ106-GAZ044-MD014-231100-

...Gateway Observations for Charleston International...

CITY           SKY/WX    TMP DP  RH WIND       PRES   REMARKS
Chas Airport   PTCLDY    69  69 100 N5        29.99R
Seattle        CLOUDY    55  51  86 SW6       30.05S
Charlotte      PTCLDY    64  64 100 N3        30.05R
Dallas DFW     CLEAR     76  69  79 S7        29.92R
Dallas Love    PTCLDY    77  68  73 S9        29.93S
Philladelphia  PTCLDY    68  51  54 N6        30.03R
Wash National  PTCLDY    65  59  81 N7        30.06R
Baltimore      PTCLDY    61  57  87 CALM      30.05R
Miami          PTCLDY    78  78 100 NW5       29.81R
Detroit        PTCLDY    66  65  96 CALM      30.11R
Newark         PTCLDY    70  51  51 N12       30.00R
Laguardia      PTCLDY    71  56  58 N13       29.98S
J F K          PTCLDY    70  55  59 N12       29.99R
Boston Logan   CLOUDY    61  60  97 N14       30.00R
Ft. Lauderdale PTCLDY    79  79 100 CALM      29.80R
Chicago O`Hare CLEAR     74  65  73 S5        30.04R
Chicago Midway CLEAR     76  67  73 S5        30.04R
Houston Bush   CLEAR     74  73  97 N3        29.91S
Houston Hobby  NOT AVBL
Nashville      CLEAR     69  67  93 CALM      30.03R
Atlanta        PTCLDY    72  67  84 E5        30.04R

$$

GAZ044-118-TXZ119-213-NCZ071-DCZ001-MDZ014-506-PAZ021-071-NJZ106-
NYZ176-178-MAZ106-OHZ011-021-055-MIZ076-KYZ091-ILZ014-INZ047-
MNZ060-ONZ431-231100-

...Gateway Observations for Savannah International...

CITY           SKY/WX    TMP DP  RH WIND       PRES   REMARKS
Savannah Arpt  PTCLDY    70  70 100 N5        29.98S FOG
Atlanta        PTCLDY    72  67  84 E5        30.04R
Charlotte      PTCLDY    64  64 100 N3        30.05R
Dallas DFW     CLEAR     76  69  79 S7        29.92R
Houston Bush   CLEAR     74  73  97 N3        29.91S
Wash National  PTCLDY    65  59  81 N7        30.06R
Wash Dulles    PTCLDY    60  60 100 CALM      30.07R
Baltimore      PTCLDY    61  57  87 CALM      30.05R
Philadelphia   PTCLDY    68  51  54 N6        30.03R
Newark         PTCLDY    70  51  51 N12       30.00R
Laguardia      PTCLDY    71  56  58 N13       29.98S
J F K          PTCLDY    70  55  59 N12       29.99R
Boston         CLOUDY    61  60  97 N14       30.00R
Pittsburg      CLEAR     59  56  89 CALM      30.11R
Akron          CLEAR     60  56  86 NE3       30.12R
Cleveland      CLEAR     62  58  86 S5        30.12R
Cincinnati     PTCLDY    67  65  93 CALM      30.08R
Columbus       CLEAR     62  62 100 E3        30.09R
Detroit        PTCLDY    66  65  96 CALM      30.11R
Chicago O`Hare CLEAR     74  65  73 S5        30.04R
Minneapolis    CLOUDY    79  69  71 S5        29.90R
Indianapolis   PTCLDY    70  66  87 SE5       30.07R
Toronto Canada PTCLDY    66  52  59 W3        30.08R

$$




USA.gov is the U.S. government's official web portal to all federal, state and local government web resources and services.